Weather Roundup
Issued by NWS

Home | Current Version | Previous Version | Text Only | Print | Product List | Glossary On
Versions: 1 2 3 4 5 6 7 8 9 10 11 12 13 14 15 16 17 18 19 20 21 22 23 24 25 26 27 28 29 30 31 32 33 34 35 36 37 38 39 40 41 42 43 44 45 46 47 48 49 50
000
NZUS93 KARX 310810
HRRWXR

CURRENT HOURLY OBSERVATIONS ACROSS
MUCH OF THE UPPER MISSISSIPPI VALLEY
NATIONAL WEATHER SERVICE LA CROSSE WI
300 AM CDT FRI OCT 31 2014


...SOUTHEAST MINNESOTA...


CITY           SKY/WX    TMP DP  RH WIND       PRES   REMARKS
ROCHESTER      CLEAR     28  16  60 N20G30    30.34R WCI  15
ROCHESTER/MAYO FAIR      29  15  55 NW15G23   30.35R WCI  18
WINONA         CLEAR     34  23  64 N14G25    30.33R WCI  24
AUSTIN         CLEAR     28  16  59 N14G21    30.35R WCI  17
ALBERT LEA     CLEAR     28  16  59 N13G21    30.38R WCI  18
DODGE CENTER   PTCLDY    28  18  64 N17G28    30.36R WCI  16
PRESTON        CLEAR     28  17  64 N15G28    30.31R WCI  16
OWATONNA       CLEAR     28  14  54 N14       30.40R WCI  17
FARIBAULT      CLEAR     30  16  55 N13G24    30.41R WCI  20
$$

...ELSEWHERE IN MINNESOTA...


CITY           SKY/WX    TMP DP  RH WIND       PRES   REMARKS
MINNEAPOLIS    CLEAR     29  15  56 N17G25    30.44R WCI  17
INTNL FALLS    MOCLDY    28  16  60 N12       30.52R WCI  18
DULUTH         CLOUDY    28  16  60 N14G26    30.41R WCI  17
RED WING       CLEAR     30  16  55 N10G17    30.38R WCI  21
REDWOOD FALLS  CLEAR     28  19  69 N10G20    30.50R WCI  19
MANKATO        CLEAR     28  12  50 N14       30.44R WCI  17
WORTHINGTON    CLEAR     25  19  80 N13       30.48R WCI  13
FAIRMONT       CLEAR     28  16  59 N15       30.44R WCI  17
$$

...SOUTHWEST WISCONSIN...


CITY           SKY/WX    TMP DP  RH WIND       PRES   REMARKS
LA CROSSE      MOCLDY    34  19  54 N18G28    30.28R WCI  23
PRAIRIE DU CHI MOCLDY    37  18  46 NW18G31   30.23R WCI  27
BOSCOBEL       PTCLDY    37  15  40 NW17G35   30.23R WCI  27
LONE ROCK      LGT RAIN  40  21  46 NW16G24   30.19R WCI  31
PLATTEVILLE    CLOUDY    37  23  58 N16G30    30.18R WCI  27
FORT MC COY    CLOUDY    32  20  62 NW14      30.25R WCI  22
CAMP DOUGLAS   FLURRIES  32  25  73 NW15G24   30.19S WCI  22
VIROQUA        CLOUDY    32  20  62 N15G31    30.22R WCI  21
WIS DELLS      CLOUDY    34  24  65 NW14G28   30.14S WCI  25
$$

...ELSEWHERE IN WISCONSIN...


CITY           SKY/WX    TMP DP  RH WIND       PRES   REMARKS
MILWAUKEE      CLOUDY    43  31  62 NW17G26   30.02S
MADISON        CLOUDY    37  27  67 NW16G26   30.12R WCI  28
GREEN BAY      LGT RAIN  38  32  79 NW16      30.05R WCI  29
EAU CLAIRE     CLEAR     30  19  63 N12       30.32R WCI  20
BLACK RVR FLS  CLOUDY    33  20  58 NW16G24   30.25R WCI  23
MEDFORD        CLOUDY    30  24  77 N20G33    30.20R WCI  17
WAUSAU         LGT SNOW  31  28  89 N16G30    30.15R FOG     WCI  20
WIS RAPIDS     LGT SNOW  32  29  88 N15G24    30.17S FOG     WCI  22
MARSHFIELD     CLOUDY    32  26  78 N24G36    30.18R WCI  19
RICE LAKE      MOCLDY    31  19  63 N20G25    30.36R WCI  18
$$

...NORTHEAST IOWA...


CITY           SKY/WX    TMP DP  RH WIND       PRES   REMARKS
DECORAH        PTCLDY    30  16  55 N17G25    30.27R WCI  18
MASON CITY     CLEAR     29  15  56 N15       30.38R WCI  18
CHARLES CITY   CLEAR     30  14  51 N18G30    30.34R WCI  18
OELWEIN        CLEAR     32  16  51 N22G33    30.27R WCI  19
$$

...ELSEWHERE IN IOWA...


CITY           SKY/WX    TMP DP  RH WIND       PRES   REMARKS
DES MOINES     PTCLDY    39  22  50 N20G29    30.35R WCI  29
IOWA CITY      CLOUDY    44  29  55 N22G28    30.21R
FORT DODGE     CLEAR     30  18  59 N10G20    30.41R WCI  21
$$

...NORTHERN ILLINOIS...


CITY           SKY/WX    TMP DP  RH WIND       PRES   REMARKS
CHICAGO-OHARE  CLOUDY    44  33  65 NW14G29   30.03R
CHICAGO-MIDWAY LGT RAIN  48  39  71 NW8       30.01F
MOLINE         CLOUDY    45  28  51 NW21G30   30.14R
ROCKFORD       CLOUDY    44  29  55 NW17      30.09S
PEORIA         CLOUDY    47  40  76 NW7       30.09S
$$

NOTE: "FAIR" INDICATES FEW OR NO CLOUDS BELOW 12,000 FEET WITH NO
SIGNIFICANT WEATHER AND/OR OBSTRUCTIONS TO VISIBILITY. WIND
SPEEDS ARE IN MILES-PER-HOUR.



USA.gov is the U.S. government's official web portal to all federal, state and local government web resources and services.